QPF
0.00 0.00 0.00 0.00 0.00 0.00 0.00 0.00 0.00 0.00 0.00 0.00 0.00 0.00 0.00 0.00 0.00 0.00 0.00 0.00 0.00 0.00 0.00 0.00 0.00 0.00 0.00 0.00 0.00 0.00 0.00 0.00 0.00 0.00 0.00 0.00 0.00 0.00 0.00 0.00 0.00 0.00 0.00
0.00 0.00 0.00 0.00 0.00 0.00 0.00 0.00 0.00 0.00 0.00 0.00 0.00 0.00 0.00 0.00 0.00 0.00 0.00 0.00 0.00 0.00 0.00 0.00 0.00 0.00 0.00 0.00 0.00 0.00 0.00 0.00 0.00 0.00 0.00 0.00 0.00 0.00 0.00 0.00 0.00 0.00 0.00
0.00 0.00 0.00 0.00 0.00 0.00 0.00 0.00 0.00 0.00 0.00 0.00 0.00 0.00 0.00 0.00 0.00 0.00 0.00 0.00 0.00 0.00 0.00 0.00 0.00 0.00 0.00 0.00 0.00 0.00 0.00 0.00 0.00 0.00 0.00 0.00 0.00 0.00 0.00 0.00 0.00 0.00 0.00
0.00 0.00 0.00 0.00 0.00 0.00 0.00 0.00 0.00 0.00 0.00 0.00 0.00 0.00 0.00 0.00 0.00 0.00 0.00 0.00 0.00 0.00 0.00 0.00 0.00 0.00 0.00 0.00 0.00 0.00 0.00 0.00 0.00 0.00 0.00 0.00 0.00 0.00 0.00 0.00 0.00 0.00 0.00
0.00 0.00 0.00 0.00 0.00 0.00 0.00 0.00 0.00 0.00 0.00 0.00 0.00 0.00 0.00 0.00 0.00 0.00 0.00 0.00 0.00 0.00 0.00 0.00 0.00 0.00 0.00 0.00 0.00 0.00 0.00 0.00 0.00 0.00 0.00 0.00 0.00 0.00 0.00 0.00 0.00 0.00 0.00
0.01 0.00 0.00 0.00 0.00 0.00 0.00 0.00 0.00 0.00 0.00 0.00 0.00 0.00 0.00 0.00 0.00 0.00 0.00 0.00 0.00 0.00 0.00 0.00 0.00 0.00 0.00 0.00 0.00 0.00 0.00 0.00 0.00 0.00 0.00 0.00 0.00 0.00 0.00 0.00 0.00 0.01 0.01
0.02 0.01 0.01 0.01 0.00 0.00 0.00 0.00 0.00 0.00 0.00 0.00 0.00 0.00 0.00 0.00 0.00 0.00 0.00 0.00 0.00 0.00 0.00 0.00 0.00 0.00 0.00 0.00 0.00 0.00 0.00 0.00 0.00 0.00 0.00 0.00 0.00 0.00 0.00 0.00 0.01 0.01 0.01
0.05 0.04 0.03 0.03 0.02 0.01 0.01 0.01 0.01 0.01 0.00 0.00 0.00 0.00 0.00 0.00 0.00 0.00 0.00 0.00 0.00 0.00 0.00 0.00 0.00 0.00 0.00 0.00 0.00 0.00 0.00 0.00 0.00 0.00 0.00 0.00 0.00 0.00 0.00 0.01 0.01 0.01 0.02
0.09 0.08 0.08 0.07 0.06 0.05 0.04 0.03 0.03 0.01 0.01 0.01 0.00 0.00 0.00 0.00 0.00 0.00 0.00 0.00 0.00 0.00 0.00 0.00 0.00 0.00 0.00 0.00 0.00 0.00 0.00 0.00 0.00 0.00 0.00 0.00 0.00 0.00 0.01 0.01 0.02 0.02 0.02
0.10 0.10 0.10 0.10 0.09 0.08 0.07 0.07 0.06 0.03 0.02 0.01 0.00 0.00 0.00 0.00 0.00 0.00 0.00 0.00 0.00 0.00 0.00 0.00 0.00 0.00 0.00 0.00 0.00 0.00 0.00 0.00 0.00 0.00 0.00 0.00 0.00 0.01 0.01 0.01 0.02 0.03 0.03
0.07 0.09 0.10 0.10 0.10 0.11 0.12 0.11 0.08 0.06 0.04 0.03 0.02 0.01 0.01 0.00 0.00 0.00 0.00 0.00 0.00 0.00 0.00 0.00 0.00 0.00 0.00 0.00 0.00 0.00 0.00 0.00 0.00 0.00 0.00 0.00 0.00 0.01 0.01 0.02 0.02 0.02 0.02
0.05 0.06 0.08 0.09 0.11 0.12 0.13 0.12 0.11 0.08 0.06 0.04 0.03 0.02 0.01 0.01 0.01 0.01 0.01 0.00 0.00 0.00 0.00 0.00 0.00 0.00 0.00 0.00 0.00 0.00 0.00 0.00 0.00 0.00 0.00 0.00 0.01 0.01 0.01 0.01 0.01 0.01 0.02
0.04 0.05 0.07 0.08 0.10 0.12 0.14 0.13 0.12 0.10 0.07 0.06 0.04 0.03 0.02 0.01 0.01 0.01 0.01 0.01 0.01 0.00 0.00 0.00 0.00 0.00 0.00 0.00 0.00 0.00 0.00 0.00 0.00 0.00 0.00 0.00 0.01 0.01 0.01 0.01 0.01 0.01 0.02
0.05 0.07 0.08 0.09 0.10 0.11 0.11 0.11 0.10 0.08 0.07 0.05 0.04 0.03 0.03 0.02 0.02 0.01 0.01 0.01 0.01 0.01 0.00 0.00 0.00 0.00 0.00 0.00 0.00 0.00 0.00 0.00 0.00 0.00 0.00 0.00 0.00 0.00 0.00 0.01 0.01 0.01 0.02
0.05 0.06 0.07 0.08 0.08 0.08 0.08 0.08 0.07 0.06 0.05 0.04 0.03 0.02 0.02 0.02 0.01 0.01 0.01 0.01 0.01 0.01 0.01 0.00 0.00 0.00 0.00 0.00 0.00 0.00 0.00 0.00 0.00 0.00 0.00 0.00 0.00 0.00 0.00 0.01 0.01 0.01 0.02
0.04 0.05 0.06 0.06 0.06 0.06 0.05 0.05 0.05 0.04 0.04 0.03 0.03 0.02 0.02 0.02 0.02 0.02 0.02 0.02 0.02 0.01 0.01 0.00 0.00 0.00 0.00 0.00 0.00 0.00 0.00 0.00 0.00 0.00 0.00 0.00 0.00 0.00 0.01 0.01 0.01 0.01 0.02
0.03 0.03 0.04 0.04 0.04 0.04 0.03 0.03 0.03 0.03 0.03 0.04 0.03 0.04 0.04 0.04 0.04 0.03 0.03 0.02 0.02 0.02 0.01 0.00 0.00 0.00 0.00 0.00 0.00 0.00 0.00 0.00 0.00 0.00 0.00 0.00 0.00 0.00 0.01 0.01 0.01 0.01 0.02
0.02 0.02 0.02 0.02 0.02 0.02 0.02 0.02 0.03 0.03 0.04 0.04 0.04 0.04 0.04 0.04 0.05 0.05 0.04 0.03 0.02 0.01 0.01 0.00 0.00 0.00 0.00 0.00 0.00 0.00 0.00 0.00 0.00 0.00 0.00 0.00 0.00 0.00 0.00 0.01 0.01 0.01 0.01
0.02 0.02 0.01 0.01 0.01 0.01 0.01 0.01 0.02 0.03 0.03 0.04 0.05 0.05 0.06 0.06 0.06 0.05 0.03 0.02 0.01 0.01 0.00 0.00 0.00 0.00 0.00 0.00 0.00 0.00 0.00 0.00 0.00 0.00 0.00 0.00 0.00 0.00 0.00 0.00 0.01 0.01 0.01
0.02 0.01 0.01 0.01 0.01 0.01 0.01 0.02 0.03 0.04 0.05 0.06 0.06 0.06 0.06 0.05 0.04 0.03 0.01 0.01 0.00 0.00 0.00 0.00 0.00 0.00 0.00 0.00 0.00 0.00 0.00 0.00 0.00 0.00 0.00 0.00 0.00 0.00 0.00 0.00 0.00 0.00 0.00
0.01 0.01 0.01 0.01 0.02 0.02 0.04 0.05 0.06 0.08 0.09 0.09 0.09 0.07 0.05 0.03 0.02 0.01 0.00 0.00 0.00 0.00 0.00 0.00 0.00 0.00 0.00 0.00 0.00 0.00 0.00 0.00 0.00 0.00 0.00 0.00 0.00 0.00 0.00 0.00 0.00 0.00 0.00
0.02 0.03 0.03 0.04 0.06 0.09 0.13 0.13 0.11 0.10 0.09 0.07 0.05 0.03 0.02 0.01 0.01 0.00 0.00 0.00 0.00 0.00 0.00 0.00 0.00 0.00 0.00 0.00 0.00 0.00 0.00 0.00 0.00 0.00 0.00 0.00 0.00 0.00 0.00 0.00 0.00 0.00 0.00
0.06 0.08 0.10 0.11 0.13 0.15 0.15 0.11 0.08 0.06 0.05 0.04 0.02 0.02 0.01 0.00 0.00 0.00 0.00 0.00 0.00 0.00 0.00 0.00 0.00 0.00 0.00 0.00 0.00 0.01 0.01 0.01 0.01 0.00 0.00 0.00 0.00 0.00 0.00 0.00 0.00 0.00 0.00
0.12 0.15 0.17 0.17 0.16 0.14 0.11 0.08 0.06 0.04 0.03 0.02 0.01 0.01 0.00 0.00 0.00 0.00 0.00 0.00 0.00 0.00 0.00 0.00 0.00 0.00 0.00 0.00 0.01 0.02 0.01 0.01 0.00 0.00 0.00 0.00 0.00 0.00 0.00 0.00 0.00 0.00 0.00
0.21 0.20 0.18 0.16 0.13 0.10 0.07 0.04 0.03 0.02 0.01 0.01 0.00 0.00 0.00 0.00 0.00 0.00 0.00 0.00 0.00 0.00 0.00 0.00 0.00 0.00 0.00 0.00 0.00 0.00 0.00 0.00 0.00 0.00 0.00 0.00 0.00 0.00 0.00 0.00 0.00 0.00 0.00
0.17 0.15 0.12 0.09 0.07 0.05 0.03 0.01 0.01 0.00 0.00 0.00 0.00 0.00 0.00 0.00 0.00 0.00 0.00 0.00 0.00 0.00 0.00 0.00 0.00 0.00 0.00 0.00 0.00 0.00 0.00 0.01 0.02 0.01 0.00 0.00 0.00 0.00 0.01 0.00 0.00 0.00 0.00
MSLP
1018.37 1018.65 1018.88 1019.09 1019.30 1019.55 1019.84 1020.17 1020.53 1020.87 1021.19 1021.44 1021.61 1021.71 1021.76 1021.77 1021.78 1021.82 1021.89 1022.00 1022.15 1022.32 1022.50 1022.65 1022.78 1022.88 1022.93 1022.96 1022.97 1022.96 1022.95 1022.93 1022.91 1022.90 1022.87 1022.85 1022.80 1022.75 1022.66 1022.55 1022.40 1022.22 1022.02
1018.08 1018.37 1018.63 1018.88 1019.15 1019.47 1019.83 1020.24 1020.66 1021.08 1021.44 1021.74 1021.95 1022.07 1022.12 1022.13 1022.14 1022.16 1022.22 1022.32 1022.46 1022.62 1022.79 1022.93 1023.04 1023.11 1023.14 1023.13 1023.09 1023.04 1022.99 1022.94 1022.91 1022.89 1022.87 1022.86 1022.84 1022.81 1022.75 1022.66 1022.54 1022.39 1022.21
1017.67 1017.99 1018.30 1018.62 1018.97 1019.36 1019.81 1020.30 1020.80 1021.27 1021.69 1022.03 1022.27 1022.41 1022.48 1022.50 1022.50 1022.51 1022.55 1022.63 1022.75 1022.90 1023.04 1023.17 1023.27 1023.31 1023.31 1023.28 1023.21 1023.12 1023.04 1022.96 1022.90 1022.86 1022.84 1022.82 1022.81 1022.78 1022.74 1022.66 1022.57 1022.44 1022.28
1017.15 1017.52 1017.89 1018.29 1018.73 1019.21 1019.75 1020.31 1020.87 1021.40 1021.86 1022.24 1022.51 1022.68 1022.77 1022.80 1022.81 1022.81 1022.84 1022.91 1023.01 1023.13 1023.26 1023.37 1023.46 1023.49 1023.48 1023.43 1023.35 1023.24 1023.13 1023.02 1022.93 1022.86 1022.80 1022.76 1022.72 1022.68 1022.63 1022.56 1022.47 1022.36 1022.22
1016.53 1016.95 1017.40 1017.88 1018.41 1018.98 1019.58 1020.20 1020.81 1021.38 1021.88 1022.29 1022.60 1022.80 1022.93 1022.99 1023.01 1023.03 1023.07 1023.13 1023.22 1023.33 1023.45 1023.55 1023.63 1023.67 1023.67 1023.61 1023.52 1023.41 1023.27 1023.14 1023.00 1022.89 1022.78 1022.69 1022.61 1022.53 1022.45 1022.36 1022.26 1022.15 1022.03
1015.81 1016.29 1016.80 1017.36 1017.97 1018.60 1019.26 1019.92 1020.56 1021.16 1021.68 1022.12 1022.47 1022.72 1022.89 1023.00 1023.07 1023.13 1023.19 1023.26 1023.36 1023.47 1023.59 1023.71 1023.80 1023.85 1023.86 1023.82 1023.74 1023.62 1023.47 1023.30 1023.12 1022.94 1022.78 1022.62 1022.47 1022.34 1022.21 1022.09 1021.97 1021.84 1021.71
1015.02 1015.54 1016.11 1016.73 1017.38 1018.06 1018.75 1019.44 1020.09 1020.69 1021.24 1021.70 1022.09 1022.41 1022.65 1022.83 1022.97 1023.09 1023.20 1023.31 1023.44 1023.57 1023.71 1023.84 1023.95 1024.03 1024.06 1024.04 1023.97 1023.85 1023.68 1023.48 1023.25 1023.01 1022.78 1022.55 1022.33 1022.13 1021.94 1021.77 1021.61 1021.46 1021.31
1014.16 1014.70 1015.31 1015.97 1016.66 1017.36 1018.06 1018.75 1019.40 1020.00 1020.56 1021.06 1021.50 1021.88 1022.21 1022.49 1022.72 1022.92 1023.10 1023.27 1023.44 1023.61 1023.78 1023.93 1024.07 1024.18 1024.24 1024.25 1024.19 1024.07 1023.88 1023.65 1023.37 1023.08 1022.77 1022.47 1022.18 1021.91 1021.67 1021.45 1021.25 1021.06 1020.89
1013.27 1013.82 1014.45 1015.13 1015.83 1016.54 1017.23 1017.91 1018.55 1019.15 1019.72 1020.25 1020.75 1021.21 1021.63 1022.01 1022.35 1022.64 1022.91 1023.15 1023.38 1023.59 1023.79 1023.99 1024.16 1024.29 1024.38 1024.40 1024.36 1024.23 1024.03 1023.77 1023.45 1023.11 1022.74 1022.38 1022.03 1021.71 1021.41 1021.14 1020.90 1020.69 1020.49
1012.39 1012.94 1013.57 1014.26 1014.96 1015.67 1016.35 1017.01 1017.63 1018.23 1018.82 1019.38 1019.94 1020.48 1020.99 1021.47 1021.91 1022.31 1022.66 1022.97 1023.25 1023.51 1023.76 1023.98 1024.18 1024.34 1024.45 1024.49 1024.45 1024.32 1024.11 1023.82 1023.47 1023.09 1022.68 1022.27 1021.88 1021.52 1021.18 1020.88 1020.60 1020.35 1020.13
1011.55 1012.11 1012.75 1013.44 1014.14 1014.84 1015.52 1016.16 1016.78 1017.38 1017.97 1018.57 1019.18 1019.79 1020.39 1020.96 1021.49 1021.97 1022.39 1022.76 1023.09 1023.39 1023.66 1023.91 1024.13 1024.31 1024.43 1024.48 1024.45 1024.32 1024.10 1023.80 1023.43 1023.02 1022.58 1022.15 1021.73 1021.34 1020.98 1020.65 1020.34 1020.07 1019.81
1010.82 1011.39 1012.04 1012.73 1013.45 1014.15 1014.82 1015.46 1016.07 1016.68 1017.29 1017.92 1018.57 1019.23 1019.89 1020.53 1021.13 1021.67 1022.14 1022.56 1022.92 1023.24 1023.54 1023.80 1024.03 1024.22 1024.35 1024.40 1024.37 1024.24 1024.01 1023.70 1023.32 1022.89 1022.45 1022.00 1021.57 1021.16 1020.78 1020.43 1020.10 1019.80 1019.50
1010.24 1010.82 1011.49 1012.21 1012.93 1013.64 1014.32 1014.96 1015.59 1016.20 1016.83 1017.49 1018.17 1018.87 1019.57 1020.25 1020.88 1021.45 1021.95 1022.39 1022.76 1023.09 1023.39 1023.65 1023.88 1024.07 1024.20 1024.25 1024.22 1024.08 1023.85 1023.53 1023.15 1022.72 1022.27 1021.82 1021.38 1020.96 1020.57 1020.20 1019.84 1019.51 1019.18
1009.85 1010.45 1011.14 1011.88 1012.62 1013.35 1014.05 1014.71 1015.35 1015.99 1016.63 1017.31 1018.01 1018.73 1019.45 1020.14 1020.78 1021.35 1021.85 1022.28 1022.64 1022.96 1023.24 1023.50 1023.71 1023.89 1024.01 1024.06 1024.01 1023.87 1023.64 1023.32 1022.93 1022.49 1022.04 1021.58 1021.14 1020.71 1020.30 1019.91 1019.53 1019.16 1018.80
1009.66 1010.29 1011.01 1011.76 1012.53 1013.28 1014.00 1014.69 1015.35 1016.01 1016.68 1017.37 1018.08 1018.80 1019.51 1020.19 1020.82 1021.37 1021.84 1022.24 1022.58 1022.87 1023.12 1023.35 1023.55 1023.70 1023.80 1023.83 1023.77 1023.62 1023.38 1023.05 1022.65 1022.22 1021.75 1021.29 1020.83 1020.39 1019.96 1019.54 1019.14 1018.73 1018.34
1009.70 1010.34 1011.07 1011.85 1012.64 1013.41 1014.15 1014.86 1015.55 1016.23 1016.92 1017.62 1018.33 1019.05 1019.74 1020.39 1020.99 1021.50 1021.93 1022.28 1022.57 1022.82 1023.03 1023.22 1023.38 1023.50 1023.57 1023.58 1023.50 1023.33 1023.07 1022.73 1022.33 1021.88 1021.41 1020.93 1020.45 1019.98 1019.53 1019.08 1018.64 1018.20 1017.78
1009.95 1010.59 1011.33 1012.11 1012.91 1013.71 1014.47 1015.20 1015.91 1016.61 1017.31 1018.02 1018.73 1019.42 1020.09 1020.70 1021.24 1021.70 1022.07 1022.37 1022.61 1022.80 1022.96 1023.09 1023.21 1023.29 1023.32 1023.29 1023.19 1023.00 1022.72 1022.36 1021.94 1021.47 1020.98 1020.48 1019.98 1019.48 1018.99 1018.51 1018.04 1017.58 1017.13
1010.40 1011.03 1011.76 1012.54 1013.34 1014.13 1014.91 1015.65 1016.38 1017.09 1017.80 1018.50 1019.20 1019.87 1020.49 1021.06 1021.54 1021.93 1022.24 1022.47 1022.64 1022.76 1022.86 1022.94 1023.00 1023.04 1023.03 1022.96 1022.82 1022.61 1022.30 1021.93 1021.49 1021.00 1020.48 1019.96 1019.42 1018.89 1018.37 1017.85 1017.35 1016.86 1016.40
1011.03 1011.64 1012.35 1013.11 1013.89 1014.68 1015.45 1016.20 1016.92 1017.64 1018.34 1019.02 1019.69 1020.32 1020.89 1021.40 1021.81 1022.13 1022.37 1022.52 1022.62 1022.68 1022.71 1022.73 1022.74 1022.72 1022.67 1022.56 1022.39 1022.15 1021.83 1021.43 1020.97 1020.46 1019.93 1019.37 1018.81 1018.24 1017.68 1017.13 1016.60 1016.09 1015.60
1011.83 1012.41 1013.08 1013.81 1014.57 1015.33 1016.08 1016.81 1017.52 1018.21 1018.89 1019.54 1020.16 1020.73 1021.24 1021.67 1022.01 1022.25 1022.40 1022.48 1022.51 1022.50 1022.47 1022.43 1022.38 1022.32 1022.23 1022.09 1021.90 1021.63 1021.29 1020.88 1020.41 1019.88 1019.33 1018.75 1018.15 1017.56 1016.96 1016.38 1015.81 1015.27 1014.77
1012.76 1013.31 1013.95 1014.64 1015.36 1016.08 1016.79 1017.49 1018.16 1018.80 1019.42 1020.01 1020.57 1021.06 1021.49 1021.84 1022.09 1022.24 1022.31 1022.31 1022.27 1022.19 1022.10 1022.02 1021.93 1021.83 1021.71 1021.55 1021.34 1021.06 1020.72 1020.30 1019.82 1019.29 1018.71 1018.11 1017.50 1016.87 1016.24 1015.63 1015.03 1014.45 1013.92
1013.81 1014.33 1014.93 1015.58 1016.25 1016.91 1017.57 1018.20 1018.80 1019.37 1019.92 1020.43 1020.89 1021.29 1021.62 1021.87 1022.02 1022.09 1022.07 1022.00 1021.89 1021.76 1021.63 1021.50 1021.38 1021.27 1021.13 1020.97 1020.75 1020.48 1020.13 1019.72 1019.24 1018.70 1018.12 1017.51 1016.87 1016.21 1015.55 1014.90 1014.26 1013.65 1013.08
1014.93 1015.43 1015.99 1016.59 1017.19 1017.79 1018.36 1018.90 1019.42 1019.90 1020.34 1020.75 1021.11 1021.40 1021.62 1021.77 1021.82 1021.80 1021.71 1021.57 1021.40 1021.23 1021.07 1020.92 1020.79 1020.67 1020.54 1020.38 1020.17 1019.91 1019.58 1019.17 1018.70 1018.16 1017.57 1016.95 1016.29 1015.61 1014.92 1014.23 1013.55 1012.90 1012.28
1016.09 1016.56 1017.08 1017.61 1018.14 1018.64 1019.12 1019.56 1019.97 1020.34 1020.67 1020.96 1021.20 1021.39 1021.50 1021.55 1021.51 1021.41 1021.25 1021.06 1020.86 1020.66 1020.48 1020.33 1020.20 1020.09 1019.97 1019.82 1019.64 1019.39 1019.07 1018.68 1018.21 1017.68 1017.09 1016.45 1015.77 1015.07 1014.35 1013.63 1012.91 1012.21 1011.54
1017.22 1017.67 1018.13 1018.59 1019.02 1019.43 1019.79 1020.12 1020.40 1020.66 1020.88 1021.06 1021.19 1021.27 1021.30 1021.25 1021.14 1020.98 1020.78 1020.55 1020.32 1020.12 1019.94 1019.79 1019.67 1019.57 1019.47 1019.34 1019.17 1018.94 1018.63 1018.24 1017.78 1017.25 1016.65 1016.00 1015.31 1014.59 1013.85 1013.09 1012.33 1011.59 1010.88
1018.29 1018.69 1019.08 1019.45 1019.79 1020.08 1020.32 1020.53 1020.70 1020.85 1020.96 1021.04 1021.09 1021.09 1021.04 1020.94 1020.78 1020.58 1020.35 1020.11 1019.88 1019.67 1019.50 1019.36 1019.25 1019.16 1019.07 1018.95 1018.78 1018.55 1018.24 1017.86 1017.39 1016.85 1016.24 1015.58 1014.88 1014.14 1013.37 1012.59 1011.81 1011.03 1010.27
Thickness
5669 5667 5664 5661 5659 5656 5654 5651 5648 5646 5643 5641 5640 5638 5635 5633 5632 5631 5629 5628 5625 5623 5620 5618 5616 5614 5612 5611 5610 5609 5608 5608 5607 5606 5606 5606 5606 5607 5607 5608 5609 5610 5611
5667 5663 5660 5658 5655 5652 5649 5646 5643 5640 5637 5635 5632 5631 5628 5626 5625 5623 5621 5619 5617 5614 5612 5609 5607 5605 5603 5602 5601 5601 5600 5599 5598 5598 5597 5597 5597 5597 5598 5599 5600 5601 5602
5665 5661 5658 5655 5651 5648 5645 5641 5637 5634 5631 5628 5625 5623 5621 5619 5617 5615 5613 5611 5608 5605 5603 5601 5598 5596 5594 5593 5592 5591 5591 5590 5589 5589 5588 5588 5588 5589 5589 5590 5591 5591 5592
5663 5659 5655 5652 5648 5644 5641 5636 5632 5627 5624 5621 5618 5616 5614 5612 5609 5607 5605 5603 5600 5597 5594 5592 5589 5587 5585 5583 5583 5582 5582 5581 5580 5580 5579 5579 5579 5580 5580 5580 5581 5582 5583
5661 5658 5654 5650 5645 5641 5637 5632 5627 5623 5618 5614 5611 5608 5606 5604 5602 5600 5597 5594 5592 5589 5586 5583 5581 5578 5576 5574 5573 5572 5572 5571 5571 5571 5570 5570 5570 5570 5571 5571 5572 5572 5573
5659 5656 5652 5647 5642 5637 5632 5628 5622 5617 5613 5609 5605 5601 5598 5597 5594 5592 5590 5587 5584 5581 5578 5575 5572 5570 5567 5565 5564 5563 5562 5562 5561 5561 5561 5560 5560 5561 5561 5561 5562 5562 5564
5658 5654 5650 5644 5640 5635 5630 5625 5618 5612 5606 5602 5597 5592 5590 5588 5586 5584 5582 5579 5576 5573 5570 5567 5564 5561 5559 5556 5554 5553 5552 5552 5551 5551 5551 5551 5551 5551 5551 5552 5552 5553 5554
5656 5652 5648 5643 5638 5633 5626 5621 5616 5608 5602 5598 5594 5588 5584 5580 5578 5577 5574 5572 5569 5566 5562 5559 5556 5553 5550 5547 5545 5543 5542 5541 5540 5540 5540 5541 5541 5541 5541 5542 5542 5543 5544
5652 5649 5646 5642 5636 5632 5626 5621 5616 5609 5600 5592 5591 5589 5582 5580 5573 5568 5565 5563 5561 5557 5554 5550 5547 5544 5541 5538 5536 5533 5532 5530 5529 5529 5530 5530 5530 5530 5530 5531 5532 5532 5533
5650 5646 5643 5639 5634 5630 5625 5620 5614 5608 5601 5591 5583 5582 5580 5578 5570 5563 5557 5554 5551 5549 5546 5542 5538 5535 5531 5528 5525 5523 5521 5519 5518 5518 5518 5518 5518 5518 5519 5519 5520 5520 5520
5645 5642 5638 5634 5629 5625 5621 5616 5609 5604 5599 5592 5584 5576 5570 5565 5563 5561 5554 5546 5542 5539 5536 5532 5528 5525 5521 5517 5514 5511 5509 5507 5506 5505 5505 5505 5506 5506 5507 5507 5507 5507 5507
5637 5634 5631 5627 5624 5619 5615 5610 5604 5598 5593 5588 5581 5576 5570 5563 5556 5553 5548 5540 5534 5528 5524 5521 5517 5513 5509 5505 5502 5499 5497 5494 5493 5492 5492 5492 5492 5493 5493 5492 5492 5492 5492
5628 5627 5624 5620 5616 5612 5607 5601 5595 5589 5584 5578 5572 5566 5562 5557 5550 5544 5538 5528 5521 5515 5512 5510 5506 5502 5497 5493 5489 5486 5483 5480 5478 5477 5477 5478 5478 5477 5476 5476 5476 5476 5476
5621 5618 5614 5611 5606 5601 5596 5590 5583 5577 5572 5566 5560 5555 5549 5543 5538 5534 5526 5517 5509 5502 5498 5497 5493 5489 5485 5480 5476 5473 5469 5466 5464 5463 5462 5462 5461 5460 5459 5459 5459 5459 5459
5606 5603 5600 5597 5593 5588 5583 5578 5571 5564 5559 5553 5547 5541 5536 5530 5525 5519 5513 5507 5500 5493 5488 5484 5479 5476 5471 5467 5463 5459 5456 5452 5450 5449 5447 5445 5444 5443 5442 5442 5441 5441 5441
5588 5586 5584 5581 5578 5573 5569 5564 5557 5551 5545 5539 5534 5528 5522 5516 5510 5504 5498 5492 5487 5480 5475 5472 5466 5461 5458 5454 5449 5446 5442 5438 5435 5433 5431 5429 5428 5426 5425 5424 5423 5422 5421
5570 5569 5568 5565 5562 5558 5554 5549 5544 5538 5532 5526 5520 5515 5508 5502 5497 5490 5484 5479 5472 5465 5461 5459 5452 5448 5443 5439 5435 5430 5426 5423 5419 5415 5413 5412 5410 5408 5407 5405 5403 5401 5400
5552 5552 5551 5548 5546 5543 5539 5535 5529 5523 5518 5513 5507 5501 5495 5489 5483 5477 5471 5465 5458 5452 5447 5444 5439 5433 5428 5423 5419 5415 5411 5406 5402 5398 5396 5393 5391 5388 5386 5383 5381 5378 5376
5533 5533 5533 5531 5529 5527 5524 5519 5515 5510 5504 5499 5493 5487 5481 5477 5471 5465 5458 5452 5446 5441 5434 5429 5425 5418 5413 5407 5403 5399 5394 5389 5383 5379 5377 5373 5370 5366 5363 5360 5357 5354 5352
5515 5515 5515 5514 5512 5510 5507 5504 5500 5495 5489 5484 5479 5474 5469 5464 5459 5454 5448 5441 5434 5428 5421 5415 5410 5404 5397 5391 5385 5382 5380 5372 5365 5360 5356 5352 5348 5344 5339 5336 5335 5332 5330
5497 5498 5498 5496 5495 5493 5491 5489 5486 5481 5476 5471 5466 5462 5457 5453 5448 5443 5437 5430 5423 5415 5408 5401 5395 5389 5383 5375 5368 5363 5360 5356 5349 5341 5340 5332 5326 5324 5319 5316 5314 5313 5313
5481 5482 5482 5481 5480 5479 5477 5476 5473 5468 5463 5459 5454 5450 5446 5441 5436 5431 5425 5419 5412 5404 5395 5388 5381 5373 5367 5358 5352 5345 5340 5336 5334 5325 5320 5318 5308 5309 5306 5302 5300 5299 5300
5468 5468 5468 5468 5467 5466 5465 5463 5460 5456 5452 5447 5442 5438 5434 5428 5422 5416 5411 5405 5397 5390 5383 5375 5367 5358 5350 5343 5336 5330 5322 5317 5313 5306 5302 5308 5301 5299 5296 5291 5288 5288 5289
5457 5457 5456 5456 5455 5454 5454 5452 5449 5444 5440 5435 5431 5426 5421 5415 5410 5406 5400 5392 5383 5375 5368 5360 5351 5343 5335 5328 5321 5316 5310 5305 5301 5292 5286 5291 5293 5290 5288 5283 5278 5277 5278
5447 5446 5446 5445 5445 5444 5444 5442 5437 5433 5428 5424 5420 5415 5409 5404 5400 5397 5390 5381 5371 5362 5353 5345 5337 5329 5322 5315 5308 5302 5295 5289 5290 5287 5276 5275 5280 5280 5281 5278 5274 5270 5269
5439 5438 5437 5436 5436 5435 5435 5432 5428 5423 5418 5414 5408 5403 5398 5394 5390 5385 5377 5367 5357 5348 5339 5330 5322 5314 5308 5301 5295 5289 5282 5275 5273 5274 5270 5265 5265 5261 5271 5277 5269 5263 5261